Fort Collins, CO

10:03 AM MST on January 18, 2018 (GMT -0700)
Fort Collins-Loveland Municipal

Weather History for KFNL - January, 2012

Change the Weather History Date:

Sunday, January 29, 2012

  Actual Average Record
Temperature  
Mean Temperature 40 °F -  
Max Temperature 60 °F - 62 °F (2017)
Min Temperature 21 °F - 3 °F (2014)
Degree Days  
Heating Degree Days 24    
Month to date heating degree days  
Cooling Degree Days 0    
Month to date cooling degree days  
Moisture  
Dew Point 16 °F    
Average Humidity 39    
Maximum Humidity 64    
Minimum Humidity 20    
Precipitation  
Precipitation 0.00 in - 0.45 in (2001)
Sea Level Pressure  
Sea Level Pressure 30.11 in    
Wind  
Wind Speed 5 mph (SSW)    
Max Wind Speed 14 mph    
Max Gust Speed 18 mph    
Visibility 10 miles    
Events      
T = Trace of Precipitation, MM = Missing Value Source: NWS Daily Summary

Daily Weather History Graph

Daily Weather History Graph

Search for Another Location

Airport or City:

Trip Planner

Search our weather history database for the weather conditions in past years. The results will help you decide how hot, cold, wet, or windy it might be!

Date:

Astronomy

Jan. 29, 2012 Rise Set
Actual Time 7:12 AM MST 5:14 PM MST
Civil Twilight 6:43 AM MST 5:43 PM MST
Nautical Twilight 6:10 AM MST 6:16 PM MST
Astronomical Twilight 5:38 AM MST 6:48 PM MST
Moon 10:03 AM MST (1/29) No Moon Set
Length of Visible Light 10h 59m
Length of Day
10h 01m
Waxing Crescent, 37% of the Moon is Illuminated
Jan 29
Waxing Crescent
Jan 30
First Quarter
Feb 7
Full
Feb 14
Last Quarter
Feb 21
New

Hourly Weather History & Observations

Time (MST) Temp. Windchill Dew Point Humidity Pressure Visibility Wind Dir Wind Speed Gust Speed Precip Events Conditions
12:15 AM 26.6 °F 21.2 °F 10.4 °F 51% 30.15 in 10.0 mi NE 4.6 mph - N/A   Clear
12:35 AM 26.6 °F 21.2 °F 12.2 °F 55% 30.16 in 10.0 mi SW 4.6 mph - N/A   Clear
12:55 AM 24.8 °F 19.1 °F 12.2 °F 59% 30.16 in 10.0 mi SW 4.6 mph - N/A   Clear
1:15 AM 24.8 °F - 14.0 °F 64% 30.15 in 10.0 mi Calm Calm - N/A   Clear
1:35 AM 24.8 °F - 14.0 °F 64% 30.17 in 10.0 mi Calm Calm - N/A   Clear
1:55 AM 24.8 °F 16.9 °F 12.2 °F 59% 30.17 in 10.0 mi SSW 6.9 mph - N/A   Clear
2:35 AM 26.6 °F 16.8 °F 12.2 °F 55% 30.16 in 10.0 mi ESE 10.4 mph - N/A   Clear
2:55 AM 30.2 °F 23.4 °F 10.4 °F 44% 30.15 in 10.0 mi South 6.9 mph - N/A   Clear
3:15 AM 24.8 °F 16.1 °F 12.2 °F 59% 30.15 in 10.0 mi SSE 8.1 mph - N/A   Clear
3:35 AM 24.8 °F 20.5 °F 12.2 °F 59% 30.15 in 10.0 mi SSE 3.5 mph - N/A   Clear
3:55 AM 30.2 °F 23.4 °F 10.4 °F 44% 30.14 in 10.0 mi SSE 6.9 mph - N/A   Clear
4:15 AM 30.2 °F 25.4 °F 10.4 °F 44% 30.14 in 10.0 mi SSE 4.6 mph - N/A   Clear
4:55 AM 26.6 °F - 12.2 °F 55% 30.15 in 10.0 mi Calm Calm - N/A   Clear
5:15 AM 26.6 °F - 10.4 °F 51% 30.14 in 10.0 mi Calm Calm - N/A   Clear
5:55 AM 24.8 °F - 12.2 °F 59% 30.15 in 10.0 mi Calm Calm - N/A   Clear
6:15 AM 21.2 °F 16.4 °F 10.4 °F 63% 30.17 in 10.0 mi NE 3.5 mph - N/A   Clear
6:35 AM 23.0 °F 17.0 °F 12.2 °F 63% 30.17 in 10.0 mi South 4.6 mph - N/A   Clear
6:55 AM 23.0 °F 18.4 °F 12.2 °F 63% 30.18 in 10.0 mi North 3.5 mph - N/A   Clear
7:15 AM 26.6 °F - 12.2 °F 55% 30.18 in 10.0 mi Calm Calm - N/A   Clear
7:35 AM 28.4 °F 18.5 °F 14.0 °F 55% 30.18 in 10.0 mi SSW 11.5 mph - N/A   Clear
7:55 AM 33.8 °F 27.0 °F 15.8 °F 48% 30.18 in 10.0 mi WSW 8.1 mph - N/A   Clear
8:15 AM 35.6 °F 29.9 °F 15.8 °F 44% 30.18 in 10.0 mi NNE 6.9 mph - N/A   Clear
8:35 AM 30.2 °F 26.7 °F 17.6 °F 60% 30.18 in 10.0 mi NNW 3.5 mph - N/A   Clear
8:55 AM 35.6 °F 30.7 °F 17.6 °F 48% 30.18 in 10.0 mi NNW 5.8 mph - N/A   Clear
9:15 AM 33.8 °F - 17.6 °F 52% 30.18 in 10.0 mi Calm Calm - N/A   Clear
9:35 AM 42.8 °F 40.1 °F 19.4 °F 39% 30.17 in 10.0 mi South 4.6 mph - N/A   Clear
10:15 AM 48.2 °F - 19.4 °F 32% 30.17 in 10.0 mi SW 10.4 mph - N/A   Clear
10:35 AM 51.8 °F - 17.6 °F 26% 30.17 in 10.0 mi SSW 8.1 mph - N/A   Clear
10:55 AM 53.6 °F - 17.6 °F 24% 30.17 in 10.0 mi SW 6.9 mph - N/A   Clear
11:15 AM 53.6 °F - 17.6 °F 24% 30.16 in 10.0 mi SSW 4.6 mph - N/A   Clear
11:35 AM 53.6 °F - 17.6 °F 24% 30.15 in 10.0 mi Calm Calm - N/A   Clear
11:55 AM 57.2 °F - 19.4 °F 23% 30.14 in 10.0 mi NNE 3.5 mph - N/A   Clear
12:35 PM 57.2 °F - 19.4 °F 23% 30.11 in 10.0 mi West 6.9 mph - N/A   Clear
12:55 PM 59.0 °F - 19.4 °F 22% 30.11 in 10.0 mi WSW 5.8 mph - N/A   Clear
1:15 PM 59.0 °F - 19.4 °F 22% 30.10 in 10.0 mi Calm Calm - N/A   Clear
1:35 PM 60.8 °F - 19.4 °F 20% 30.09 in 10.0 mi SW 13.8 mph 17.3 mph N/A   Partly Cloudy
1:55 PM 59.0 °F - 19.4 °F 22% 30.08 in 10.0 mi South 9.2 mph - N/A   Clear
2:15 PM 57.2 °F - 19.4 °F 23% 30.08 in 10.0 mi SSW 10.4 mph 18.4 mph N/A   Clear
2:35 PM 55.4 °F - 17.6 °F 23% 30.08 in 10.0 mi SW 9.2 mph - N/A   Clear
2:55 PM 59.0 °F - 19.4 °F 22% 30.08 in 10.0 mi SSW 4.6 mph - N/A   Scattered Clouds
3:15 PM 60.8 °F - 19.4 °F 20% 30.08 in 10.0 mi West 6.9 mph - N/A   Mostly Cloudy
3:35 PM 55.4 °F - 17.6 °F 23% 30.08 in 10.0 mi WSW 9.2 mph - N/A   Scattered Clouds
3:55 PM 51.8 °F - 21.2 °F 30% 30.08 in 10.0 mi WSW 4.6 mph - N/A   Clear
4:15 PM 51.8 °F - 19.4 °F 28% 30.07 in 10.0 mi SW 6.9 mph - N/A   Clear
4:35 PM 53.6 °F - 19.4 °F 26% 30.08 in 10.0 mi WSW 9.2 mph - N/A   Clear
4:55 PM 51.8 °F - 17.6 °F 26% 30.07 in 10.0 mi SW 11.5 mph - N/A   Clear
5:15 PM 48.2 °F - 17.6 °F 30% 30.07 in 10.0 mi SW 6.9 mph - N/A   Clear
5:35 PM 48.2 °F - 17.6 °F 30% 30.07 in 10.0 mi WSW 11.5 mph - N/A   Clear
5:55 PM 48.2 °F - 17.6 °F 30% 30.07 in 10.0 mi SW 4.6 mph - N/A   Clear
6:15 PM 50.0 °F - 17.6 °F 28% 30.07 in 10.0 mi SSW 3.5 mph - N/A   Clear
6:35 PM 50.0 °F - 15.8 °F 26% 30.06 in 10.0 mi WSW 9.2 mph - N/A   Clear
6:55 PM 48.2 °F - 15.8 °F 27% 30.05 in 10.0 mi SSW 3.5 mph - N/A   Clear
7:15 PM 50.0 °F - 15.8 °F 26% 30.05 in 10.0 mi Calm Calm - N/A   Clear
7:35 PM 50.0 °F - 15.8 °F 26% 30.04 in 10.0 mi West 3.5 mph - N/A   Clear
8:15 PM 46.4 °F 42.9 °F 15.8 °F 29% 30.03 in 10.0 mi SE 6.9 mph - N/A   Clear
8:35 PM 46.4 °F 45.2 °F 15.8 °F 29% 30.03 in 10.0 mi SSE 3.5 mph - N/A   Clear
9:15 PM 39.2 °F 37.0 °F 17.6 °F 42% 30.03 in 10.0 mi North 3.5 mph - N/A   Clear
9:35 PM 42.8 °F 38.0 °F 17.6 °F 36% 30.02 in 10.0 mi North 8.1 mph - N/A   Clear
9:55 PM 39.2 °F 33.0 °F 17.6 °F 42% 30.01 in 10.0 mi SE 9.2 mph - N/A   Clear
10:15 PM 41.0 °F 35.2 °F 15.8 °F 36% 30.00 in 10.0 mi ESE 9.2 mph - N/A   Clear
10:35 PM 35.6 °F 29.2 °F 17.6 °F 48% 30.01 in 10.0 mi NNE 8.1 mph - N/A   Clear
10:55 PM 35.6 °F 30.7 °F 15.8 °F 44% 30.00 in 10.0 mi ENE 5.8 mph - N/A   Clear
11:15 PM 37.4 °F 30.8 °F 15.8 °F 41% 30.00 in 10.0 mi ESE 9.2 mph - N/A   Clear
11:35 PM 35.6 °F 28.0 °F 17.6 °F 48% 29.98 in 10.0 mi SSW 10.4 mph - N/A   Clear
11:55 PM 35.6 °F 32.8 °F 17.6 °F 48% 29.98 in 10.0 mi South 3.5 mph - N/A   Clear